When you browse on this site, cookies collect data to enhance your experience and personalize the content and advertising you see.
Visit our Privacy Policy to learn more. By continuing to use the site, you agree to this use of cookies and data.
  • In France
  • List of Countries
  • For 7 days
  • Water Temperature
  • Satellite Maps
  • Weather Map
  • Weather Widgets
  • user-avatar
    Login

    Hourly Weather Nakhchivan

    Today, 27 June, Thursday

    Time Temperature Precipitation Wind Pressure Humidity
    00:00 +29°C° 0 mm 1 mps 688 mmHg 37%
    01:00 +28°C° 0.1 mm 1 mps 688 mmHg 40%
    02:00 +28°C° 0.1 mm 1 mps 687 mmHg 43%
    03:00 +27°C° 0 mm 1 mps 687 mmHg 47%
    04:00 +27°C° 0.1 mm 1 mps 687 mmHg 49%
    05:00 +26°C° 0.1 mm 1 mps 687 mmHg 50%
    06:00 +26°C° 0.1 mm 1 mps 687 mmHg 52%
    07:00 +27°C° 0 mm 1 mps 687 mmHg 48%
    08:00 +28°C° 0 mm 1 mps 687 mmHg 44%
    09:00 +29°C° 0 mm 1 mps 687 mmHg 40%
    10:00 +31°C° 0 mm 1 mps 687 mmHg 36%
    11:00 +32°C° 0 mm 1 mps 687 mmHg 32%
    12:00 +33°C° 0 mm 1 mps 686 mmHg 28%
    13:00 +35°C° 0 mm 2 mps 686 mmHg 27%
    14:00 +36°C° 0 mm 2 mps 686 mmHg 25%
    15:00 +37°C° 0 mm 2 mps 686 mmHg 23%
    16:00 +37°C° 0 mm 2 mps 686 mmHg 24%
    17:00 +37°C° 0 mm 2 mps 686 mmHg 24%
    18:00 +36°C° 0 mm 3 mps 685 mmHg 24%
    19:00 +34°C° 0.3 mm 2 mps 685 mmHg 31%
    20:00 +31°C° 0.3 mm 2 mps 685 mmHg 38%
    21:00 +28°C° 0.3 mm 2 mps 685 mmHg 45%
    22:00 +28°C° 0.2 mm 2 mps 685 mmHg 46%
    23:00 +28°C° 0.2 mm 1 mps 685 mmHg 47%

    Tomorrow, 28 June, Friday

    Time Temperature Precipitation Wind Pressure Humidity
    00:00 +27°C° 0.2 mm 1 mps 685 mmHg 48%
    01:00 +27°C° 0.1 mm 1 mps 684 mmHg 50%
    02:00 +26°C° 0.1 mm 1 mps 684 mmHg 52%
    03:00 +26°C° 0.1 mm 1 mps 684 mmHg 53%
    04:00 +26°C° 0 mm 1 mps 684 mmHg 52%
    05:00 +26°C° 0 mm 1 mps 684 mmHg 51%
    06:00 +26°C° 0 mm 1 mps 683 mmHg 49%
    07:00 +27°C° 0 mm 1 mps 683 mmHg 45%
    08:00 +28°C° 0 mm 1 mps 683 mmHg 42%
    09:00 +29°C° 0 mm 1 mps 683 mmHg 38%
    10:00 +30°C° 0 mm 1 mps 683 mmHg 34%
    11:00 +32°C° 0 mm 1 mps 682 mmHg 31%
    12:00 +33°C° 0 mm 1 mps 682 mmHg 27%
    13:00 +35°C° 0 mm 2 mps 682 mmHg 26%
    14:00 +36°C° 0 mm 3 mps 682 mmHg 24%
    15:00 +37°C° 0 mm 3 mps 681 mmHg 23%
    16:00 +37°C° 0.1 mm 3 mps 681 mmHg 24%
    17:00 +36°C° 0.1 mm 3 mps 681 mmHg 26%
    18:00 +35°C° 0.1 mm 3 mps 681 mmHg 27%
    19:00 +33°C° 0.1 mm 4 mps 681 mmHg 34%
    20:00 +30°C° 0.1 mm 5 mps 681 mmHg 41%
    21:00 +28°C° 0.1 mm 6 mps 681 mmHg 48%
    22:00 +27°C° 0 mm 5 mps 681 mmHg 50%
    23:00 +27°C° 0 mm 4 mps 681 mmHg 51%

    Day after tomorrow, 29 June, Saturday

    Time Temperature Precipitation Wind Pressure Humidity
    00:00 +26°C° 0 mm 3 mps 680 mmHg 52%
    01:00 +26°C° 0 mm 3 mps 680 mmHg 54%
    02:00 +25°C° 0 mm 2 mps 680 mmHg 56%
    03:00 +25°C° 0 mm 2 mps 680 mmHg 58%
    04:00 +25°C° 0 mm 2 mps 680 mmHg 58%
    05:00 +24°C° 0 mm 2 mps 679 mmHg 59%
    06:00 +24°C° 0 mm 2 mps 679 mmHg 60%
    07:00 +25°C° 0 mm 2 mps 679 mmHg 56%
    08:00 +27°C° 0 mm 2 mps 679 mmHg 51%
    09:00 +28°C° 0 mm 1 mps 679 mmHg 47%
    10:00 +29°C° 0 mm 1 mps 679 mmHg 43%
    11:00 +31°C° 0 mm 1 mps 679 mmHg 39%
    12:00 +32°C° 0 mm 1 mps 679 mmHg 35%
    13:00 +35°C° 0 mm 2 mps 679 mmHg 30%
    14:00 +36°C° 0 mm 2 mps 679 mmHg 26%
    15:00 +38°C° 0 mm 3 mps 679 mmHg 21%
    16:00 +37°C° 0 mm 4 mps 679 mmHg 23%
    17:00 +36°C° 0 mm 4 mps 679 mmHg 25%
    18:00 +36°C° 0 mm 5 mps 679 mmHg 27%
    19:00 +33°C° 0.1 mm 6 mps 679 mmHg 35%
    20:00 +29°C° 0.1 mm 7 mps 680 mmHg 43%
    21:00 +26°C° 0.1 mm 8 mps 680 mmHg 50%
    22:00 +26°C° 0.1 mm 7 mps 680 mmHg 52%
    23:00 +25°C° 0.1 mm 5 mps 680 mmHg 53%

    30 June, Sunday

    Time Temperature Precipitation Wind Pressure Humidity
    00:00 +25°C° 0.1 mm 4 mps 680 mmHg 55%
    01:00 +23°C° 0 mm 4 mps 680 mmHg 58%
    02:00 +23°C° 0 mm 4 mps 680 mmHg 60%
    03:00 +22°C° 0 mm 4 mps 680 mmHg 63%
    04:00 +22°C° 0 mm 3 mps 680 mmHg 61%
    05:00 +22°C° 0 mm 3 mps 680 mmHg 60%
    06:00 +22°C° 0 mm 3 mps 680 mmHg 58%
    07:00 +24°C° 0 mm 3 mps 680 mmHg 53%
    08:00 +25°C° 0 mm 3 mps 681 mmHg 48%
    09:00 +26°C° 0 mm 3 mps 681 mmHg 44%
    10:00 +27°C° 0 mm 3 mps 681 mmHg 41%
    11:00 +29°C° 0 mm 2 mps 680 mmHg 38%
    12:00 +30°C° 0 mm 1 mps 680 mmHg 36%
    13:00 +31°C° 0 mm 2 mps 680 mmHg 33%
    14:00 +34°C° 0 mm 2 mps 680 mmHg 30%
    15:00 +35°C° 0 mm 3 mps 680 mmHg 27%
    16:00 +34°C° 0.2 mm 4 mps 680 mmHg 30%
    17:00 +33°C° 0.2 mm 5 mps 680 mmHg 32%
    18:00 +32°C° 0.2 mm 6 mps 680 mmHg 34%
    19:00 +30°C° 0.1 mm 5 mps 680 mmHg 37%
    20:00 +29°C° 0.1 mm 5 mps 681 mmHg 40%
    21:00 +27°C° 0.1 mm 5 mps 681 mmHg 43%
    22:00 +26°C° 0 mm 6 mps 681 mmHg 46%
    23:00 +23°C° 0 mm 6 mps 681 mmHg 49%

    1 July, Monday

    Time Temperature Precipitation Wind Pressure Humidity
    00:00 +22°C° 0 mm 7 mps 682 mmHg 52%
    01:00 +21°C° 0 mm 7 mps 682 mmHg 52%
    02:00 +20°C° 0 mm 7 mps 682 mmHg 52%
    03:00 +19°C° 0 mm 6 mps 682 mmHg 51%
    04:00 +19°C° 0 mm 6 mps 682 mmHg 50%
    05:00 +19°C° 0 mm 6 mps 682 mmHg 49%
    06:00 +19°C° 0 mm 6 mps 682 mmHg 48%
    07:00 +19°C° 0 mm 6 mps 683 mmHg 47%
    08:00 +20°C° 0 mm 6 mps 683 mmHg 46%
    09:00 +20°C° 0 mm 6 mps 683 mmHg 44%
    10:00 +21°C° 0 mm 6 mps 683 mmHg 41%
    11:00 +23°C° 0 mm 7 mps 683 mmHg 38%
    12:00 +24°C° 0 mm 7 mps 684 mmHg 35%
    13:00 +26°C° 0 mm 6 mps 684 mmHg 32%
    14:00 +26°C° 0 mm 5 mps 684 mmHg 30%
    15:00 +27°C° 0 mm 5 mps 684 mmHg 28%
    16:00 +27°C° 0 mm 4 mps 684 mmHg 29%
    17:00 +27°C° 0 mm 4 mps 684 mmHg 29%
    18:00 +27°C° 0 mm 4 mps 685 mmHg 29%
    19:00 +25°C° 0 mm 4 mps 685 mmHg 32%
    20:00 +23°C° 0 mm 5 mps 686 mmHg 36%
    21:00 +22°C° 0 mm 5 mps 687 mmHg 39%
    22:00 +21°C° 0 mm 4 mps 687 mmHg 41%
    23:00 +20°C° 0 mm 4 mps 687 mmHg 43%

    2 July, Tuesday

    Time Temperature Precipitation Wind Pressure Humidity
    00:00 +20°C° 0 mm 3 mps 688 mmHg 44%
    01:00 +19°C° 0 mm 4 mps 688 mmHg 44%
    02:00 +18°C° 0 mm 4 mps 688 mmHg 45%
    03:00 +17°C° 0 mm 5 mps 688 mmHg 45%
    04:00 +18°C° 0 mm 4 mps 689 mmHg 45%
    05:00 +18°C° 0 mm 4 mps 689 mmHg 45%
    06:00 +17°C° 0 mm 3 mps 689 mmHg 44%
    07:00 +19°C° 0 mm 3 mps 689 mmHg 40%
    08:00 +20°C° 0 mm 4 mps 689 mmHg 36%
    09:00 +21°C° 0 mm 4 mps 689 mmHg 32%
    10:00 +23°C° 0 mm 4 mps 689 mmHg 30%
    11:00 +25°C° 0 mm 3 mps 689 mmHg 27%
    12:00 +26°C° 0 mm 3 mps 689 mmHg 24%
    13:00 +27°C° 0 mm 3 mps 689 mmHg 23%
    14:00 +28°C° 0 mm 3 mps 688 mmHg 22%
    15:00 +29°C° 0 mm 3 mps 688 mmHg 21%
    16:00 +29°C° 0 mm 2 mps 688 mmHg 21%
    17:00 +29°C° 0 mm 2 mps 688 mmHg 21%
    18:00 +29°C° 0 mm 2 mps 688 mmHg 21%
    19:00 +28°C° 0 mm 1 mps 689 mmHg 24%
    20:00 +27°C° 0 mm 1 mps 689 mmHg 27%
    21:00 +26°C° 0 mm 1 mps 689 mmHg 29%
    22:00 +25°C° 0 mm 1 mps 689 mmHg 32%
    23:00 +24°C° 0 mm 1 mps 689 mmHg 34%
    Show more